• In Kazakhstan
  • List of Countries
  • For 7 days
  • Water Temperature
  • Weather Map
  • News
  • Weather Widgets
  • user-avatar
    Login

    Hourly Weather Laives

    Today, 14 November, Thursday

    Time Temperature Precipitation Wind Pressure Humidity
    00:00 0°C° 0 mm 1 mps 730 mmHg 84%
    01:00 +1°C° 0 mm 1 mps 730 mmHg 83%
    02:00 +1°C° 0 mm 1 mps 730 mmHg 84%
    03:00 +1°C° 0 mm 1 mps 730 mmHg 85%
    04:00 +1°C° 0 mm 1 mps 730 mmHg 86%
    05:00 +1°C° 0 mm 1 mps 730 mmHg 86%
    06:00 +1°C° 0 mm 1 mps 730 mmHg 87%
    07:00 +1°C° 0 mm 1 mps 730 mmHg 88%
    08:00 +3°C° 0 mm 1 mps 730 mmHg 87%
    09:00 +5°C° 0 mm 1 mps 730 mmHg 85%
    10:00 +6°C° 0 mm 0 mps 730 mmHg 83%
    11:00 +8°C° 0 mm 1 mps 730 mmHg 83%
    12:00 +8°C° 0 mm 1 mps 730 mmHg 83%
    13:00 +9°C° 0 mm 1 mps 729 mmHg 82%
    14:00 +9°C° 0 mm 1 mps 729 mmHg 85%
    15:00 +8°C° 0 mm 1 mps 729 mmHg 87%
    16:00 +6°C° 0 mm 0 mps 728 mmHg 90%
    17:00 +6°C° 0 mm 1 mps 729 mmHg 90%
    18:00 +5°C° 0 mm 1 mps 729 mmHg 90%
    19:00 +4°C° 0 mm 1 mps 729 mmHg 90%
    20:00 +5°C° 0 mm 1 mps 729 mmHg 91%
    21:00 +5°C° 0 mm 1 mps 729 mmHg 92%
    22:00 +5°C° 0 mm 1 mps 729 mmHg 93%
    23:00 +5°C° 0.4 mm 1 mps 728 mmHg 94%

    Tomorrow, 15 November, Friday

    Time Temperature Precipitation Wind Pressure Humidity
    00:00 +6°C° 0.4 mm 1 mps 728 mmHg 96%
    01:00 +6°C° 0.4 mm 1 mps 727 mmHg 97%
    02:00 +6°C° 2 mm 1 mps 726 mmHg 97%
    03:00 +7°C° 2 mm 1 mps 726 mmHg 98%
    04:00 +7°C° 2 mm 1 mps 725 mmHg 98%
    05:00 +7°C° 3.2 mm 2 mps 725 mmHg 98%
    06:00 +7°C° 3.2 mm 2 mps 725 mmHg 98%
    07:00 +7°C° 3.2 mm 2 mps 724 mmHg 99%
    08:00 +7°C° 4.5 mm 2 mps 724 mmHg 99%
    09:00 +8°C° 4.5 mm 2 mps 725 mmHg 99%
    10:00 +9°C° 4.5 mm 1 mps 725 mmHg 99%
    11:00 +9°C° 5.6 mm 1 mps 725 mmHg 99%
    12:00 +9°C° 5.6 mm 1 mps 725 mmHg 99%
    13:00 +9°C° 5.6 mm 1 mps 725 mmHg 99%
    14:00 +9°C° 6.9 mm 1 mps 725 mmHg 99%
    15:00 +9°C° 6.9 mm 1 mps 725 mmHg 99%
    16:00 +9°C° 6.9 mm 1 mps 725 mmHg 99%
    17:00 +8°C° 3.3 mm 1 mps 726 mmHg 99%
    18:00 +8°C° 3.3 mm 1 mps 726 mmHg 99%
    19:00 +8°C° 3.3 mm 1 mps 727 mmHg 99%
    20:00 +8°C° 0.5 mm 1 mps 727 mmHg 99%
    21:00 +9°C° 0.5 mm 1 mps 727 mmHg 99%
    22:00 +9°C° 0.5 mm 1 mps 728 mmHg 99%
    23:00 +9°C° 0.3 mm 1 mps 728 mmHg 99%

    Day after tomorrow, 16 November, Saturday

    Time Temperature Precipitation Wind Pressure Humidity
    00:00 +9°C° 0.3 mm 1 mps 729 mmHg 99%
    01:00 +7°C° 0.3 mm 2 mps 729 mmHg 99%
    02:00 +8°C° 0.8 mm 1 mps 729 mmHg 99%
    03:00 +8°C° 0.8 mm 1 mps 730 mmHg 99%
    04:00 +7°C° 0.8 mm 1 mps 730 mmHg 99%
    05:00 +7°C° 0.3 mm 1 mps 731 mmHg 98%
    06:00 +7°C° 0.3 mm 1 mps 731 mmHg 98%
    07:00 +6°C° 0.3 mm 1 mps 732 mmHg 97%
    08:00 +7°C° 0.1 mm 1 mps 732 mmHg 97%
    09:00 +6°C° 0.1 mm 0 mps 733 mmHg 98%
    10:00 +7°C° 0.1 mm 0 mps 733 mmHg 98%
    11:00 +7°C° 0 mm 0 mps 734 mmHg 98%
    12:00 +7°C° 0 mm 0 mps 734 mmHg 98%
    13:00 +9°C° 0 mm 1 mps 734 mmHg 98%
    14:00 +8°C° 0 mm 1 mps 734 mmHg 98%
    15:00 +8°C° 0 mm 1 mps 734 mmHg 98%
    16:00 +7°C° 0 mm 0 mps 734 mmHg 98%
    17:00 +7°C° 0 mm 1 mps 734 mmHg 96%
    18:00 +7°C° 0 mm 1 mps 734 mmHg 95%
    19:00 +6°C° 0 mm 1 mps 734 mmHg 93%
    20:00 +6°C° 0.2 mm 1 mps 734 mmHg 94%
    21:00 +6°C° 0.2 mm 1 mps 733 mmHg 95%
    22:00 +6°C° 0.2 mm 1 mps 733 mmHg 96%
    23:00 +7°C° 2.2 mm 1 mps 732 mmHg 97%

    17 November, Sunday

    Time Temperature Precipitation Wind Pressure Humidity
    00:00 +7°C° 2.2 mm 1 mps 731 mmHg 97%
    01:00 +7°C° 2.2 mm 1 mps 730 mmHg 98%
    02:00 +6°C° 3.2 mm 2 mps 730 mmHg 98%
    03:00 +7°C° 3.2 mm 2 mps 729 mmHg 99%
    04:00 +7°C° 3.2 mm 2 mps 728 mmHg 99%
    05:00 +7°C° 4.3 mm 2 mps 727 mmHg 99%
    06:00 +7°C° 4.3 mm 2 mps 727 mmHg 99%
    07:00 +8°C° 4.3 mm 2 mps 726 mmHg 99%
    08:00 +8°C° 8.4 mm 2 mps 726 mmHg 99%
    09:00 +9°C° 8.4 mm 1 mps 725 mmHg 99%
    10:00 +9°C° 8.4 mm 1 mps 725 mmHg 99%
    11:00 +9°C° 10.5 mm 1 mps 725 mmHg 99%
    12:00 +9°C° 10.5 mm 1 mps 724 mmHg 99%
    13:00 +8°C° 10.5 mm 1 mps 724 mmHg 99%
    14:00 +8°C° 4.2 mm 1 mps 724 mmHg 99%
    15:00 +8°C° 4.2 mm 1 mps 724 mmHg 99%
    16:00 +8°C° 4.2 mm 1 mps 724 mmHg 99%
    17:00 +8°C° 2.6 mm 1 mps 724 mmHg 99%
    18:00 +9°C° 2.6 mm 1 mps 725 mmHg 99%
    19:00 +9°C° 2.6 mm 1 mps 726 mmHg 99%
    20:00 +9°C° 1.4 mm 1 mps 726 mmHg 99%
    21:00 +9°C° 1.4 mm 1 mps 727 mmHg 99%
    22:00 +9°C° 1.4 mm 1 mps 728 mmHg 99%
    23:00 +8°C° 0.7 mm 1 mps 728 mmHg 99%

    18 November, Monday

    Time Temperature Precipitation Wind Pressure Humidity
    00:00 +8°C° 0.7 mm 1 mps 728 mmHg 99%
    01:00 +8°C° 0.7 mm 1 mps 728 mmHg 99%
    02:00 +7°C° 0.2 mm 1 mps 728 mmHg 98%
    03:00 +7°C° 0.2 mm 1 mps 729 mmHg 97%
    04:00 +7°C° 0.2 mm 1 mps 729 mmHg 97%
    05:00 +6°C° 0 mm 1 mps 729 mmHg 96%
    06:00 +6°C° 0 mm 1 mps 729 mmHg 96%
    07:00 +5°C° 0 mm 1 mps 729 mmHg 96%
    08:00 +5°C° 0.2 mm 0 mps 729 mmHg 97%
    09:00 +6°C° 0.2 mm 0 mps 730 mmHg 98%
    10:00 +6°C° 0.2 mm 0 mps 730 mmHg 99%
    11:00 +8°C° 0.5 mm 1 mps 730 mmHg 99%
    12:00 +8°C° 0.5 mm 1 mps 730 mmHg 99%
    13:00 +8°C° 0.5 mm 1 mps 730 mmHg 99%
    14:00 +8°C° 0.3 mm 1 mps 730 mmHg 99%
    15:00 +7°C° 0.3 mm 1 mps 730 mmHg 99%
    16:00 +7°C° 0.3 mm 1 mps 731 mmHg 99%
    17:00 +7°C° 0.1 mm 1 mps 732 mmHg 99%
    18:00 +7°C° 0.1 mm 1 mps 732 mmHg 98%
    19:00 +6°C° 0.1 mm 1 mps 733 mmHg 98%
    20:00 +5°C° 0.1 mm 0 mps 733 mmHg 97%
    21:00 +4°C° 0.1 mm 0 mps 733 mmHg 97%
    22:00 +4°C° 0.1 mm 0 mps 734 mmHg 96%
    23:00 +4°C° 0 mm 0 mps 734 mmHg 96%

    19 November, Tuesday

    Time Temperature Precipitation Wind Pressure Humidity
    00:00 +5°C° 0 mm 1 mps 734 mmHg 95%
    01:00 +5°C° 0 mm 1 mps 734 mmHg 95%
    02:00 +4°C° 0 mm 1 mps 734 mmHg 94%
    03:00 +4°C° 0 mm 1 mps 734 mmHg 93%
    04:00 +3°C° 0 mm 1 mps 734 mmHg 92%
    05:00 +3°C° 0 mm 1 mps 734 mmHg 91%
    06:00 +2°C° 0 mm 1 mps 735 mmHg 90%
    07:00 +2°C° 0 mm 1 mps 735 mmHg 89%
    08:00 +3°C° 0 mm 1 mps 735 mmHg 90%
    09:00 +5°C° 0 mm 1 mps 735 mmHg 91%
    10:00 +5°C° 0 mm 0 mps 736 mmHg 92%
    11:00 +6°C° 0 mm 0 mps 735 mmHg 94%
    12:00 +6°C° 0 mm 0 mps 735 mmHg 95%
    13:00 +7°C° 0 mm 0 mps 735 mmHg 96%
    14:00 +6°C° 0 mm 0 mps 735 mmHg 97%
    15:00 +6°C° 0 mm 0 mps 735 mmHg 97%
    16:00 +5°C° 0 mm 0 mps 735 mmHg 97%
    17:00 +4°C° 0 mm 0 mps 736 mmHg 96%
    18:00 +3°C° 0 mm 0 mps 736 mmHg 94%
    19:00 +3°C° 0 mm 1 mps 737 mmHg 92%
    20:00 +3°C° 0 mm 1 mps 737 mmHg 91%
    21:00 +3°C° 0 mm 1 mps 738 mmHg 90%
    22:00 +2°C° 0 mm 1 mps 738 mmHg 89%
    23:00 +2°C° 0 mm 1 mps 738 mmHg 88%
    Show more